Weather in Egorievsk

Russia / Moscow Oblast     55°22′58″N   39°02′08″E
temp.,
°C
wind,
m/s
gust,
m/s
humid.,
%
clouds,
%
prec.,
mm/h
press.,
hPa
HPBL,
m
5 march, fri
fri500:00−5nw1291100 0.1 100190
03:00−8nw249389 0.1 100398
06:00−9wnw259783 0.0 1005112
09:00−7wnw369272 0.1 1007248
12:00−3wnw468091 0.1 1007873
15:00−2wnw577496 0.5 10091183
18:00−6wnw368467 0.3 1011132
21:00−9wnw238959 0.3 101436
6 march, sat
sat600:00−11wnw12910 0.0 101521
03:00−11w12910 0.0 101721
06:00−12w12920 0.0 101620
09:00−9w24880 0.0 1017146
12:00−5wnw247919 0.0 1017736
15:00−4wnw347660 0.3 1016872
18:00−7wnw228899 0.4 101522
21:00−10wsw229162 0.4 101521
7 march, sun
sun700:00−12sw36940 0.0 1013110
03:00−11sw412900 0.0 1010287
06:00−9sw6138985 0.1 1006611
09:00−5sw7157992 0.1 1001940
12:00−4sw81591100 1.5 9961220
15:00−2wsw71394100 3.7 9941005
18:00−5w51087100 0.7 995779
21:00−9wsw4118191 0.9 998335
8 march, mon
mon800:00−8sw5138582 0.1 996588
03:00−6wsw6139191 0.4 9941063
06:00−6w4991100 0.5 993622
09:00−9w599098 0.6 996636
12:00−8nw61082100 0.4 9981044
15:00−7nw71180100 0.8 10021207
18:00−8wnw51182100 0.1 1004935
21:00−10nw399390 0.1 1007677
9 march, tue
tue900:00−14nw389442 0.0 1009204
03:00−16nw379636 0.0 1011172
06:00−17nnw379697 0.0 1013252
09:00−16nnw369194 0.0 1015323
12:00−13nnw468384 0.0 1017613
15:00−12nnw467992 0.0 1018780
18:00−15nnw3887100 0.0 1018303
21:00−19nnw379451 0.0 1021176